Showing default

OPS 7613 (P/L 3), 4259

Orbit data source: Space-Track

OPS 7613 (P/L 3), 4259 is an American payload satellite in LEO that was launched on Tue, 30 Sep 1969 UTC via a THORAD SLV-2G AGENA D launch vehicle from the Air Force Western Test Range (AFWTR). Payload-class satellites include a variety of spacecraft equipped with specific instruments for various scientific and technological missions. These include communications satellites like Starlink; space stations such as the ISS; scientific satellites like the Hubble; Earth observation satellites from companies like Planet Labs, Umbra, and HawkEye 360; GPS; miniature CubeSats for education and research; and military/defense satellites.

Loading next visibility...
Identifier
4259, 1969-082D
Orbit
LEO
Country
Flag of USUS
Related business
Manufacturer
NRL
Mission
Spacecraft
Bus & Motor
NRL MULTI, Unknown motor
Mass
100 kg wet, 100 kg dry
Launch date (UTC)
1969-09-30 (57 years ago)
Launch vehicle
THORAD SLV-2G AGENA D
Launch site
Air Force Western Test Range (AFWTR)
Object type
Payload
Rocket body
Debris
Shape & HBR
Unknown shape, 0.7 m
Radar Cross Section
Medium (>0.1 m² and <1 m²)

Expand to show TLE details & history
Last TLE update: 3 days ago

TLE from 3 days ago
0 OPS 7613 (P/L 3)
1  4259U 69082D   26171.30479619 -.00000010  00000-0  31247-4 0  9994
2  4259  70.0140 128.9521 0019277 151.5216  11.7199 13.95124863982110
Epoch: 2026-06-20T07:18Z
TLE epoch observation values (Epoch: 2026-06-20T07:18:54.390Z)
Latitude
15.67013°
Longitude
-75.12081°
Altitude
898.602 km
Speed
7.411 km/s
True Right ascension
20h 12m 30s
True Declination
15° 34' 58"
Sunlit
Object was in full shadow at epoch
Visualization orbit readout
Latitude
Unknown
Longitude
Unknown
Altitude
Unknown
Speed
Unknown
Apparent Right ascension
Unknown
Apparent Declination
Unknown
Sunlit
N/A
Visualization observer readout
Local Sidereal Time
12:51:16
Azimuth
Unknown
Elevation
Unknown
Doppler factor
Unknown
Orbital elements
Apogee altitude
922.815 km
Perigee altitude
894.722 km
Semi-major axis
7,286.906 km
Eccentricity
0.00193
Inclination
70.014°
RAAN
128.9521°
Arg. of periapsis
151.5216°
True anomaly
11.76488°
Mean anomaly
11.7199°
Eccentric anomaly
11.74238°
Mean motion
3.48922 °/min
Orbital period
103.17 mins
BSTAR
0.000031247

Documentation

Showing up to 5 results
|